• In Hungary
  • List of Countries
  • For 7 days
  • Water Temperature
  • Satellite Maps
  • Weather Map
  • News
  • Weather Widgets
  • user-avatar
    Login

    Hourly Weather Novaya Zolotovka

    Today, 16 October, Tuesday

    Time Temperature Precipitation Wind Pressure Humidity
    00:00 +12°C° 0 mm 2 mps 754 mmHg 83%
    01:00 +12°C° 0 mm 2 mps 754 mmHg 84%
    02:00 +10°C° 0 mm 2 mps 754 mmHg 85%
    03:00 +10°C° 0 mm 2 mps 754 mmHg 87%
    04:00 +10°C° 0 mm 2 mps 754 mmHg 87%
    05:00 +9°C° 0 mm 2 mps 754 mmHg 88%
    06:00 +9°C° 0 mm 2 mps 754 mmHg 89%
    07:00 +10°C° 0 mm 2 mps 754 mmHg 85%
    08:00 +12°C° 0 mm 2 mps 754 mmHg 81%
    09:00 +13°C° 0 mm 2 mps 754 mmHg 75%
    10:00 +14°C° 0 mm 2 mps 754 mmHg 68%
    11:00 +16°C° 0 mm 2 mps 754 mmHg 61%
    12:00 +17°C° 0 mm 3 mps 754 mmHg 54%
    13:00 +18°C° 0 mm 3 mps 754 mmHg 53%
    14:00 +18°C° 0 mm 3 mps 754 mmHg 52%
    15:00 +19°C° 0 mm 3 mps 754 mmHg 51%
    16:00 +17°C° 0 mm 3 mps 754 mmHg 56%
    17:00 +16°C° 0 mm 2 mps 753 mmHg 62%
    18:00 +14°C° 0 mm 2 mps 753 mmHg 67%
    19:00 +14°C° 0 mm 2 mps 753 mmHg 69%
    20:00 +13°C° 0 mm 2 mps 753 mmHg 71%
    21:00 +12°C° 0 mm 2 mps 753 mmHg 73%
    22:00 +12°C° 0 mm 2 mps 753 mmHg 74%
    23:00 +11°C° 0 mm 3 mps 753 mmHg 75%

    Tomorrow, 17 October, Wednesday

    Time Temperature Precipitation Wind Pressure Humidity
    00:00 +10°C° 0 mm 3 mps 753 mmHg 77%
    01:00 +10°C° 0 mm 3 mps 753 mmHg 78%
    02:00 +10°C° 0 mm 3 mps 752 mmHg 79%
    03:00 +9°C° 0 mm 3 mps 752 mmHg 80%
    04:00 +9°C° 0 mm 3 mps 752 mmHg 81%
    05:00 +9°C° 0 mm 3 mps 752 mmHg 82%
    06:00 +8°C° 0 mm 3 mps 752 mmHg 83%
    07:00 +10°C° 0 mm 3 mps 752 mmHg 78%
    08:00 +11°C° 0 mm 3 mps 752 mmHg 73%
    09:00 +12°C° 0 mm 4 mps 752 mmHg 68%
    10:00 +13°C° 0 mm 4 mps 752 mmHg 64%
    11:00 +15°C° 0 mm 4 mps 752 mmHg 59%
    12:00 +17°C° 0 mm 4 mps 752 mmHg 54%
    13:00 +17°C° 0 mm 4 mps 752 mmHg 53%
    14:00 +18°C° 0 mm 4 mps 752 mmHg 52%
    15:00 +18°C° 0 mm 4 mps 752 mmHg 51%
    16:00 +17°C° 0 mm 3 mps 752 mmHg 57%
    17:00 +14°C° 0 mm 3 mps 752 mmHg 63%
    18:00 +14°C° 0 mm 2 mps 752 mmHg 69%
    19:00 +13°C° 0 mm 2 mps 752 mmHg 71%
    20:00 +12°C° 0 mm 2 mps 752 mmHg 74%
    21:00 +12°C° 0 mm 2 mps 752 mmHg 76%
    22:00 +10°C° 0 mm 2 mps 753 mmHg 79%
    23:00 +10°C° 0 mm 2 mps 753 mmHg 81%

    Day after tomorrow, 18 October, Thursday

    Time Temperature Precipitation Wind Pressure Humidity
    00:00 +9°C° 0 mm 2 mps 753 mmHg 83%
    01:00 +9°C° 0 mm 2 mps 753 mmHg 85%
    02:00 +10°C° 0 mm 1 mps 753 mmHg 87%
    03:00 +9°C° 0 mm 1 mps 753 mmHg 90%
    04:00 +9°C° 0 mm 1 mps 753 mmHg 91%
    05:00 +9°C° 0 mm 1 mps 753 mmHg 91%
    06:00 +8°C° 0 mm 1 mps 753 mmHg 92%
    07:00 +9°C° 0 mm 1 mps 753 mmHg 89%
    08:00 +10°C° 0 mm 1 mps 753 mmHg 85%
    09:00 +11°C° 0 mm 1 mps 753 mmHg 82%
    10:00 +13°C° 0 mm 1 mps 753 mmHg 76%
    11:00 +14°C° 0 mm 1 mps 753 mmHg 70%
    12:00 +15°C° 0 mm 1 mps 753 mmHg 64%
    13:00 +16°C° 0 mm 1 mps 753 mmHg 62%
    14:00 +16°C° 0 mm 1 mps 753 mmHg 60%
    15:00 +18°C° 0 mm 1 mps 752 mmHg 58%
    16:00 +16°C° 0 mm 1 mps 752 mmHg 63%
    17:00 +14°C° 0 mm 1 mps 752 mmHg 68%
    18:00 +13°C° 0 mm 1 mps 752 mmHg 72%
    19:00 +13°C° 0 mm 2 mps 752 mmHg 74%
    20:00 +12°C° 0 mm 2 mps 752 mmHg 76%
    21:00 +12°C° 0 mm 2 mps 751 mmHg 78%
    22:00 +10°C° 0 mm 2 mps 751 mmHg 80%
    23:00 +10°C° 0 mm 2 mps 751 mmHg 81%

    19 October, Friday

    Time Temperature Precipitation Wind Pressure Humidity
    00:00 +10°C° 0 mm 2 mps 751 mmHg 82%
    01:00 +9°C° 0 mm 2 mps 751 mmHg 83%
    02:00 +9°C° 0 mm 2 mps 751 mmHg 84%
    03:00 +9°C° 0 mm 2 mps 751 mmHg 85%
    04:00 +9°C° 0 mm 2 mps 751 mmHg 85%
    05:00 +8°C° 0 mm 2 mps 751 mmHg 86%
    06:00 +8°C° 0 mm 3 mps 750 mmHg 87%
    07:00 +9°C° 0 mm 3 mps 750 mmHg 82%
    08:00 +10°C° 0 mm 3 mps 750 mmHg 78%
    09:00 +11°C° 0 mm 3 mps 750 mmHg 73%
    10:00 +13°C° 0 mm 3 mps 750 mmHg 67%
    11:00 +14°C° 0 mm 4 mps 750 mmHg 62%
    12:00 +17°C° 0 mm 4 mps 750 mmHg 56%
    13:00 +17°C° 0 mm 4 mps 749 mmHg 55%
    14:00 +18°C° 0 mm 4 mps 749 mmHg 53%
    15:00 +18°C° 0 mm 4 mps 748 mmHg 51%
    16:00 +17°C° 0 mm 4 mps 748 mmHg 56%
    17:00 +14°C° 0 mm 3 mps 748 mmHg 62%
    18:00 +13°C° 0 mm 3 mps 748 mmHg 67%
    19:00 +12°C° 0 mm 3 mps 748 mmHg 68%
    20:00 +12°C° 0 mm 3 mps 748 mmHg 69%
    21:00 +11°C° 0 mm 3 mps 747 mmHg 69%
    22:00 +11°C° 0 mm 3 mps 747 mmHg 69%
    23:00 +10°C° 0 mm 3 mps 747 mmHg 68%

    20 October, Saturday

    Time Temperature Precipitation Wind Pressure Humidity
    00:00 +10°C° 0 mm 3 mps 747 mmHg 68%
    01:00 +10°C° 0 mm 3 mps 747 mmHg 68%
    02:00 +9°C° 0 mm 3 mps 746 mmHg 68%
    03:00 +9°C° 0 mm 2 mps 746 mmHg 68%
    04:00 +9°C° 0 mm 2 mps 746 mmHg 69%
    05:00 +9°C° 0 mm 2 mps 746 mmHg 70%
    06:00 +8°C° 0 mm 2 mps 745 mmHg 72%
    07:00 +9°C° 0 mm 2 mps 746 mmHg 70%
    08:00 +10°C° 0 mm 2 mps 746 mmHg 69%
    09:00 +12°C° 0 mm 2 mps 746 mmHg 67%
    10:00 +13°C° 0 mm 1 mps 746 mmHg 63%
    11:00 +14°C° 0 mm 1 mps 746 mmHg 59%
    12:00 +16°C° 0 mm 1 mps 746 mmHg 55%
    13:00 +16°C° 0 mm 1 mps 746 mmHg 54%
    14:00 +16°C° 0 mm 1 mps 746 mmHg 54%
    15:00 +16°C° 0 mm 0 mps 745 mmHg 54%
    16:00 +16°C° 0 mm 1 mps 745 mmHg 58%
    17:00 +15°C° 0 mm 1 mps 746 mmHg 63%
    18:00 +14°C° 0 mm 2 mps 746 mmHg 67%
    19:00 +14°C° 0 mm 2 mps 746 mmHg 70%
    20:00 +13°C° 0 mm 2 mps 746 mmHg 73%
    21:00 +13°C° 0 mm 2 mps 746 mmHg 76%
    22:00 +11°C° 0 mm 3 mps 746 mmHg 79%
    23:00 +11°C° 0 mm 3 mps 746 mmHg 82%

    21 October, Sunday

    Time Temperature Precipitation Wind Pressure Humidity
    00:00 +10°C° 0 mm 3 mps 746 mmHg 85%
    01:00 +10°C° 0 mm 3 mps 746 mmHg 86%
    02:00 +10°C° 0 mm 3 mps 746 mmHg 87%
    03:00 +9°C° 0 mm 3 mps 746 mmHg 88%
    04:00 +8°C° 0 mm 4 mps 746 mmHg 87%
    05:00 +8°C° 0 mm 4 mps 746 mmHg 86%
    06:00 +8°C° 0 mm 4 mps 746 mmHg 86%
    07:00 +8°C° 0 mm 4 mps 746 mmHg 84%
    08:00 +10°C° 0 mm 4 mps 746 mmHg 82%
    09:00 +10°C° 0 mm 4 mps 746 mmHg 81%
    10:00 +11°C° 0.1 mm 4 mps 746 mmHg 79%
    11:00 +11°C° 0.1 mm 4 mps 746 mmHg 77%
    12:00 +12°C° 0.1 mm 4 mps 746 mmHg 75%
    13:00 +12°C° 0.5 mm 4 mps 746 mmHg 76%
    14:00 +12°C° 0.5 mm 4 mps 746 mmHg 77%
    15:00 +12°C° 0.5 mm 4 mps 745 mmHg 78%
    16:00 +11°C° 2 mm 4 mps 745 mmHg 80%
    17:00 +11°C° 2 mm 4 mps 745 mmHg 82%
    18:00 +10°C° 2 mm 4 mps 745 mmHg 84%
    19:00 +10°C° 1.8 mm 4 mps 745 mmHg 85%
    20:00 +9°C° 1.8 mm 5 mps 745 mmHg 86%
    21:00 +8°C° 1.8 mm 5 mps 745 mmHg 87%
    22:00 +8°C° 0.3 mm 5 mps 745 mmHg 87%
    23:00 +8°C° 0.3 mm 5 mps 745 mmHg 87%
    Show more